owner,sensor,date,latitude,longitude,vertical_datum,wind_speed,wind_to_direction,wind_speed_of_gust,qcFlag 
DISL,ioos:station:DISL:DISL:1,2019-07-01T00:00:00Z,30.2513,-88.0778,9.68,1.57,220.7,-9999.0,'11111222,11111222,99999222' 
DISL,ioos:station:DISL:DISL:1,2019-07-01T01:00:00Z,30.2513,-88.0778,9.68,1.56,165.8,-9999.0,'11111222,11111222,99999222' 
DISL,ioos:station:DISL:DISL:1,2019-07-01T02:00:00Z,30.2513,-88.0778,9.68,1.61,192.8,-9999.0,'11111222,11111222,99999222' 
DISL,ioos:station:DISL:DISL:1,2019-07-01T03:00:00Z,30.2513,-88.0778,9.68,2.0,188.2,-9999.0,'11111222,11111222,99999222' 
DISL,ioos:station:DISL:DISL:1,2019-07-01T04:00:00Z,30.2513,-88.0778,9.68,2.21,201.6,-9999.0,'11111222,11111222,99999222' 
DISL,ioos:station:DISL:DISL:1,2019-07-01T05:00:00Z,30.2513,-88.0778,9.68,2.07,221.9,-9999.0,'11111222,11111222,99999222' 
DISL,ioos:station:DISL:DISL:1,2019-07-01T06:00:00Z,30.2513,-88.0778,9.68,2.2,222.1,-9999.0,'11111222,11111222,99999222' 
DISL,ioos:station:DISL:DISL:1,2019-07-01T07:00:00Z,30.2513,-88.0778,9.68,1.47,247.9,-9999.0,'11111222,11111222,99999222' 
DISL,ioos:station:DISL:DISL:1,2019-07-01T08:00:00Z,30.2513,-88.0778,9.68,1.27,276.6,-9999.0,'11111222,11111222,99999222' 
DISL,ioos:station:DISL:DISL:1,2019-07-01T09:00:00Z,30.2513,-88.0778,9.68,1.38,280.1,-9999.0,'11111222,11111222,99999222' 
DISL,ioos:station:DISL:DISL:1,2019-07-01T10:00:00Z,30.2513,-88.0778,9.68,1.2,307.3,-9999.0,'11111222,11111222,99999222' 
DISL,ioos:station:DISL:DISL:1,2019-07-01T11:00:00Z,30.2513,-88.0778,9.68,0.56,281.5,-9999.0,'11111222,11111222,99999222' 
DISL,ioos:station:DISL:DISL:1,2019-07-01T13:00:00Z,30.2513,-88.0778,9.68,2.02,299.2,-9999.0,'11111222,11111222,99999222' 
DISL,ioos:station:DISL:DISL:1,2019-07-01T14:00:00Z,30.2513,-88.0778,9.68,4.36,309.5,-9999.0,'11111222,11111222,99999222' 
DISL,ioos:station:DISL:DISL:1,2019-07-01T17:00:00Z,30.2513,-88.0778,9.68,2.08,170.1,-9999.0,'11111222,11111222,99999222' 
DISL,ioos:station:DISL:DISL:1,2019-07-01T18:00:00Z,30.2513,-88.0778,9.68,2.62,159.3,-9999.0,'11111222,11111222,99999222' 
DISL,ioos:station:DISL:DISL:1,2019-07-01T19:00:00Z,30.2513,-88.0778,9.68,2.82,190.3,-9999.0,'11111222,11111222,99999222' 
DISL,ioos:station:DISL:DISL:1,2019-07-01T20:00:00Z,30.2513,-88.0778,9.68,2.28,192.8,-9999.0,'11111222,11111222,99999222' 
DISL,ioos:station:DISL:DISL:1,2019-07-01T21:00:00Z,30.2513,-88.0778,9.68,2.7,202.9,-9999.0,'11111222,11111222,99999222' 
DISL,ioos:station:DISL:DISL:1,2019-07-01T22:00:00Z,30.2513,-88.0778,9.68,3.9,207.7,-9999.0,'11111222,11111222,99999222' 
DISL,ioos:station:DISL:DISL:1,2019-07-01T23:00:00Z,30.2513,-88.0778,9.68,3.69,215.2,-9999.0,'11111222,11111222,99999222' 
DISL,ioos:station:DISL:DISL:1,2019-07-02T00:00:00Z,30.2513,-88.0778,9.68,3.29,227.4,-9999.0,'11111222,11111222,99999222' 
DISL,ioos:station:DISL:DISL:1,2019-07-02T01:00:00Z,30.2513,-88.0778,9.68,3.49,244.1,-9999.0,'11111222,11111222,99999222' 
DISL,ioos:station:DISL:DISL:1,2019-07-02T02:00:00Z,30.2513,-88.0778,9.68,2.8,254.5,-9999.0,'11111222,11111222,99999222' 
DISL,ioos:station:DISL:DISL:1,2019-07-02T03:00:00Z,30.2513,-88.0778,9.68,2.2,260.1,-9999.0,'11111222,11111222,99999222' 
DISL,ioos:station:DISL:DISL:1,2019-07-02T04:00:00Z,30.2513,-88.0778,9.68,2.5,268.0,-9999.0,'11111222,11111222,99999222' 
DISL,ioos:station:DISL:DISL:1,2019-07-02T05:00:00Z,30.2513,-88.0778,9.68,1.97,268.9,-9999.0,'11111222,11111222,99999222' 
DISL,ioos:station:DISL:DISL:1,2019-07-02T06:00:00Z,30.2513,-88.0778,9.68,2.35,261.3,-9999.0,'11111222,11111222,99999222' 
DISL,ioos:station:DISL:DISL:1,2019-07-02T07:00:00Z,30.2513,-88.0778,9.68,1.88,263.9,-9999.0,'11111222,11111222,99999222' 
DISL,ioos:station:DISL:DISL:1,2019-07-02T08:00:00Z,30.2513,-88.0778,9.68,1.61,267.7,-9999.0,'11111222,11111222,99999222' 
DISL,ioos:station:DISL:DISL:1,2019-07-02T09:00:00Z,30.2513,-88.0778,9.68,1.81,254.5,-9999.0,'11111222,11111222,99999222' 
DISL,ioos:station:DISL:DISL:1,2019-07-02T10:00:00Z,30.2513,-88.0778,9.68,3.2,295.8,-9999.0,'11111222,11111222,99999222' 
DISL,ioos:station:DISL:DISL:1,2019-07-02T11:00:00Z,30.2513,-88.0778,9.68,3.62,293.1,-9999.0,'11111222,11111222,99999222' 
DISL,ioos:station:DISL:DISL:1,2019-07-02T12:00:00Z,30.2513,-88.0778,9.68,5.22,295.8,-9999.0,'11111222,11111222,99999222' 
DISL,ioos:station:DISL:DISL:1,2019-07-02T13:00:00Z,30.2513,-88.0778,9.68,6.45,318.0,-9999.0,'11111222,11111222,99999222' 
DISL,ioos:station:DISL:DISL:1,2019-07-02T14:00:00Z,30.2513,-88.0778,9.68,5.82,308.0,-9999.0,'11111222,11111222,99999222' 
DISL,ioos:station:DISL:DISL:1,2019-07-02T15:00:00Z,30.2513,-88.0778,9.68,4.5,310.3,-9999.0,'11111222,11111222,99999222' 
DISL,ioos:station:DISL:DISL:1,2019-07-02T16:00:00Z,30.2513,-88.0778,9.68,2.76,313.8,-9999.0,'11111222,11111222,99999222' 
DISL,ioos:station:DISL:DISL:1,2019-07-02T17:00:00Z,30.2513,-88.0778,9.68,1.38,335.9,-9999.0,'11111222,11111222,99999222' 
DISL,ioos:station:DISL:DISL:1,2019-07-02T18:00:00Z,30.2513,-88.0778,9.68,2.42,217.5,-9999.0,'11111222,11111222,99999222' 
DISL,ioos:station:DISL:DISL:1,2019-07-02T19:00:00Z,30.2513,-88.0778,9.68,3.24,210.5,-9999.0,'11111222,11111222,99999222' 
DISL,ioos:station:DISL:DISL:1,2019-07-02T20:00:00Z,30.2513,-88.0778,9.68,3.24,211.6,-9999.0,'11111222,11111222,99999222' 
DISL,ioos:station:DISL:DISL:1,2019-07-02T21:00:00Z,30.2513,-88.0778,9.68,3.53,241.0,-9999.0,'11111222,11111222,99999222' 
DISL,ioos:station:DISL:DISL:1,2019-07-02T22:00:00Z,30.2513,-88.0778,9.68,3.42,241.0,-9999.0,'11111222,11111222,99999222' 
DISL,ioos:station:DISL:DISL:1,2019-07-02T23:00:00Z,30.2513,-88.0778,9.68,2.84,241.6,-9999.0,'11111222,11111222,99999222' 
DISL,ioos:station:DISL:DISL:1,2019-07-03T00:00:00Z,30.2513,-88.0778,9.68,3.34,269.8,-9999.0,'11111222,11111222,99999222' 
DISL,ioos:station:DISL:DISL:1,2019-07-03T01:00:00Z,30.2513,-88.0778,9.68,2.21,267.8,-9999.0,'11111222,11111222,99999222' 
DISL,ioos:station:DISL:DISL:1,2019-07-03T02:00:00Z,30.2513,-88.0778,9.68,2.2,252.1,-9999.0,'11111222,11111222,99999222' 
DISL,ioos:station:DISL:DISL:1,2019-07-03T03:00:00Z,30.2513,-88.0778,9.68,2.88,265.1,-9999.0,'11111222,11111222,99999222' 
DISL,ioos:station:DISL:DISL:1,2019-07-03T04:00:00Z,30.2513,-88.0778,9.68,2.84,265.5,-9999.0,'11111222,11111222,99999222' 
DISL,ioos:station:DISL:DISL:1,2019-07-03T05:00:00Z,30.2513,-88.0778,9.68,2.46,269.6,-9999.0,'11111222,11111222,99999222' 
DISL,ioos:station:DISL:DISL:1,2019-07-03T06:00:00Z,30.2513,-88.0778,9.68,2.58,272.4,-9999.0,'11111222,11111222,99999222' 
DISL,ioos:station:DISL:DISL:1,2019-07-03T07:00:00Z,30.2513,-88.0778,9.68,4.64,326.2,-9999.0,'11111222,11111222,99999222' 
DISL,ioos:station:DISL:DISL:1,2019-07-03T08:00:00Z,30.2513,-88.0778,9.68,3.6,324.2,-9999.0,'11111222,11111222,99999222' 
DISL,ioos:station:DISL:DISL:1,2019-07-03T09:00:00Z,30.2513,-88.0778,9.68,3.31,332.4,-9999.0,'11111222,11111222,99999222' 
DISL,ioos:station:DISL:DISL:1,2019-07-03T10:00:00Z,30.2513,-88.0778,9.68,3.79,326.8,-9999.0,'11111222,11111222,99999222' 
DISL,ioos:station:DISL:DISL:1,2019-07-03T11:00:00Z,30.2513,-88.0778,9.68,3.98,315.5,-9999.0,'11111222,11111222,99999222' 
DISL,ioos:station:DISL:DISL:1,2019-07-03T12:00:00Z,30.2513,-88.0778,9.68,5.07,315.3,-9999.0,'11111222,11111222,99999222' 
DISL,ioos:station:DISL:DISL:1,2019-07-03T13:00:00Z,30.2513,-88.0778,9.68,5.05,307.2,-9999.0,'11111222,11111222,99999222' 
DISL,ioos:station:DISL:DISL:1,2019-07-03T14:00:00Z,30.2513,-88.0778,9.68,4.67,319.7,-9999.0,'11111222,11111222,99999222' 
DISL,ioos:station:DISL:DISL:1,2019-07-03T15:00:00Z,30.2513,-88.0778,9.68,3.27,333.7,-9999.0,'11111222,11111222,99999222' 
DISL,ioos:station:DISL:DISL:1,2019-07-03T16:00:00Z,30.2513,-88.0778,9.68,1.54,350.9,-9999.0,'11111222,11111222,99999222' 
DISL,ioos:station:DISL:DISL:1,2019-07-03T17:00:00Z,30.2513,-88.0778,9.68,1.44,5.883,-9999.0,'11111222,11111222,99999222' 
DISL,ioos:station:DISL:DISL:1,2019-07-03T18:00:00Z,30.2513,-88.0778,9.68,1.38,189.1,-9999.0,'11111222,11111222,99999222' 
DISL,ioos:station:DISL:DISL:1,2019-07-03T19:00:00Z,30.2513,-88.0778,9.68,2.53,208.1,-9999.0,'11111222,11111222,99999222' 
DISL,ioos:station:DISL:DISL:1,2019-07-03T20:00:00Z,30.2513,-88.0778,9.68,3.45,228.0,-9999.0,'11111222,11111222,99999222' 
DISL,ioos:station:DISL:DISL:1,2019-07-03T21:00:00Z,30.2513,-88.0778,9.68,3.27,232.3,-9999.0,'11111222,11111222,99999222' 
DISL,ioos:station:DISL:DISL:1,2019-07-03T22:00:00Z,30.2513,-88.0778,9.68,2.93,234.6,-9999.0,'11111222,11111222,99999222' 
DISL,ioos:station:DISL:DISL:1,2019-07-03T23:00:00Z,30.2513,-88.0778,9.68,2.98,235.5,-9999.0,'11111222,11111222,99999222' 
DISL,ioos:station:DISL:DISL:1,2019-07-04T00:00:00Z,30.2513,-88.0778,9.68,2.29,249.2,-9999.0,'11111222,11111222,99999222' 
DISL,ioos:station:DISL:DISL:1,2019-07-04T01:00:00Z,30.2513,-88.0778,9.68,1.32,248.2,-9999.0,'11111222,11111222,99999222' 
DISL,ioos:station:DISL:DISL:1,2019-07-04T02:00:00Z,30.2513,-88.0778,9.68,1.51,258.0,-9999.0,'11111222,11111222,99999222' 
DISL,ioos:station:DISL:DISL:1,2019-07-04T03:00:00Z,30.2513,-88.0778,9.68,1.69,256.9,-9999.0,'11111222,11111222,99999222' 
DISL,ioos:station:DISL:DISL:1,2019-07-04T04:00:00Z,30.2513,-88.0778,9.68,1.95,268.2,-9999.0,'11111222,11111222,99999222' 
DISL,ioos:station:DISL:DISL:1,2019-07-04T05:00:00Z,30.2513,-88.0778,9.68,2.16,264.4,-9999.0,'11111222,11111222,99999222' 
DISL,ioos:station:DISL:DISL:1,2019-07-04T06:00:00Z,30.2513,-88.0778,9.68,2.13,270.6,-9999.0,'11111222,11111222,99999222' 
DISL,ioos:station:DISL:DISL:1,2019-07-04T07:00:00Z,30.2513,-88.0778,9.68,2.89,280.2,-9999.0,'11111222,11111222,99999222' 
DISL,ioos:station:DISL:DISL:1,2019-07-04T08:00:00Z,30.2513,-88.0778,9.68,3.68,276.4,-9999.0,'11111222,11111222,99999222' 
DISL,ioos:station:DISL:DISL:1,2019-07-04T09:00:00Z,30.2513,-88.0778,9.68,4.5,305.0,-9999.0,'11111222,11111222,99999222' 
DISL,ioos:station:DISL:DISL:1,2019-07-04T10:00:00Z,30.2513,-88.0778,9.68,4.26,303.5,-9999.0,'11111222,11111222,99999222' 
DISL,ioos:station:DISL:DISL:1,2019-07-04T11:00:00Z,30.2513,-88.0778,9.68,4.04,300.8,-9999.0,'11111222,11111222,99999222' 
DISL,ioos:station:DISL:DISL:1,2019-07-04T12:00:00Z,30.2513,-88.0778,9.68,4.75,318.3,-9999.0,'11111222,11111222,99999222' 
DISL,ioos:station:DISL:DISL:1,2019-07-04T13:00:00Z,30.2513,-88.0778,9.68,3.64,328.6,-9999.0,'11111222,11111222,99999222' 
DISL,ioos:station:DISL:DISL:1,2019-07-04T14:00:00Z,30.2513,-88.0778,9.68,2.28,346.1,-9999.0,'11111222,11111222,99999222' 
DISL,ioos:station:DISL:DISL:1,2019-07-04T15:00:00Z,30.2513,-88.0778,9.68,2.7,22.9,-9999.0,'11111222,11111222,99999222' 
DISL,ioos:station:DISL:DISL:1,2019-07-04T16:00:00Z,30.2513,-88.0778,9.68,3.17,51.43,-9999.0,'11111222,11111222,99999222' 
DISL,ioos:station:DISL:DISL:1,2019-07-04T17:00:00Z,30.2513,-88.0778,9.68,3.82,50.26,-9999.0,'11111222,11111222,99999222' 
DISL,ioos:station:DISL:DISL:1,2019-07-04T18:00:00Z,30.2513,-88.0778,9.68,2.47,50.42,-9999.0,'11111222,11111222,99999222' 
DISL,ioos:station:DISL:DISL:1,2019-07-04T19:00:00Z,30.2513,-88.0778,9.68,0.95,95.6,-9999.0,'11111222,11111222,99999222' 
DISL,ioos:station:DISL:DISL:1,2019-07-04T20:00:00Z,30.2513,-88.0778,9.68,3.11,217.9,-9999.0,'11111222,11111222,99999222' 
DISL,ioos:station:DISL:DISL:1,2019-07-04T21:00:00Z,30.2513,-88.0778,9.68,3.49,223.7,-9999.0,'11111222,11111222,99999222' 
DISL,ioos:station:DISL:DISL:1,2019-07-04T22:00:00Z,30.2513,-88.0778,9.68,3.29,239.4,-9999.0,'11111222,11111222,99999222' 
DISL,ioos:station:DISL:DISL:1,2019-07-04T23:00:00Z,30.2513,-88.0778,9.68,3.18,256.6,-9999.0,'11111222,11111222,99999222' 
DISL,ioos:station:DISL:DISL:1,2019-07-05T00:00:00Z,30.2513,-88.0778,9.68,3.47,263.2,-9999.0,'11111222,11111222,99999222' 
DISL,ioos:station:DISL:DISL:1,2019-07-05T01:00:00Z,30.2513,-88.0778,9.68,2.53,261.7,-9999.0,'11111222,11111222,99999222' 
DISL,ioos:station:DISL:DISL:1,2019-07-05T02:00:00Z,30.2513,-88.0778,9.68,3.07,266.0,-9999.0,'11111222,11111222,99999222' 
DISL,ioos:station:DISL:DISL:1,2019-07-05T03:00:00Z,30.2513,-88.0778,9.68,2.18,259.3,-9999.0,'11111222,11111222,99999222' 
DISL,ioos:station:DISL:DISL:1,2019-07-05T04:00:00Z,30.2513,-88.0778,9.68,2.45,278.1,-9999.0,'11111222,11111222,99999222' 
DISL,ioos:station:DISL:DISL:1,2019-07-05T05:00:00Z,30.2513,-88.0778,9.68,2.56,274.4,-9999.0,'11111222,11111222,99999222' 
DISL,ioos:station:DISL:DISL:1,2019-07-05T06:00:00Z,30.2513,-88.0778,9.68,2.04,272.3,-9999.0,'11111222,11111222,99999222' 
DISL,ioos:station:DISL:DISL:1,2019-07-05T07:00:00Z,30.2513,-88.0778,9.68,2.65,286.5,-9999.0,'11111222,11111222,99999222' 
DISL,ioos:station:DISL:DISL:1,2019-07-05T08:00:00Z,30.2513,-88.0778,9.68,3.74,299.6,-9999.0,'11111222,11111222,99999222' 
DISL,ioos:station:DISL:DISL:1,2019-07-05T09:00:00Z,30.2513,-88.0778,9.68,3.9,303.7,-9999.0,'11111222,11111222,99999222' 
DISL,ioos:station:DISL:DISL:1,2019-07-05T10:00:00Z,30.2513,-88.0778,9.68,4.66,305.5,-9999.0,'11111222,11111222,99999222' 
DISL,ioos:station:DISL:DISL:1,2019-07-05T11:00:00Z,30.2513,-88.0778,9.68,4.25,302.3,-9999.0,'11111222,11111222,99999222' 
DISL,ioos:station:DISL:DISL:1,2019-07-05T12:00:00Z,30.2513,-88.0778,9.68,5.03,328.4,-9999.0,'11111222,11111222,99999222' 
DISL,ioos:station:DISL:DISL:1,2019-07-05T13:00:00Z,30.2513,-88.0778,9.68,4.48,346.4,-9999.0,'11111222,11111222,99999222' 
DISL,ioos:station:DISL:DISL:1,2019-07-05T14:00:00Z,30.2513,-88.0778,9.68,3.31,357.3,-9999.0,'11111222,11111222,99999222' 
DISL,ioos:station:DISL:DISL:1,2019-07-05T15:00:00Z,30.2513,-88.0778,9.68,2.89,11.88,-9999.0,'11111222,11111222,99999222' 
DISL,ioos:station:DISL:DISL:1,2019-07-05T16:00:00Z,30.2513,-88.0778,9.68,3.27,16.2,-9999.0,'11111222,11111222,99999222' 
DISL,ioos:station:DISL:DISL:1,2019-07-05T17:00:00Z,30.2513,-88.0778,9.68,3.07,8.49,-9999.0,'11111222,11111222,99999222' 
DISL,ioos:station:DISL:DISL:1,2019-07-05T17:30:00Z,30.2513,-88.0778,9.68,2.12,4.547,-9999.0,'11111222,11111222,99999222' 
DISL,ioos:station:DISL:DISL:1,2019-07-05T20:00:00Z,30.2513,-88.0778,9.68,2.59,204.9,-9999.0,'11111222,11111222,99999222' 
DISL,ioos:station:DISL:DISL:1,2019-07-05T21:00:00Z,30.2513,-88.0778,9.68,6.9,287.8,-9999.0,'11111222,11111222,99999222' 
DISL,ioos:station:DISL:DISL:1,2019-07-05T22:00:00Z,30.2513,-88.0778,9.68,4.07,274.3,-9999.0,'11111222,11111222,99999222' 
DISL,ioos:station:DISL:DISL:1,2019-07-05T23:00:00Z,30.2513,-88.0778,9.68,2.46,256.7,-9999.0,'11111222,11111222,99999222' 
DISL,ioos:station:DISL:DISL:1,2019-07-06T00:00:00Z,30.2513,-88.0778,9.68,2.16,259.9,-9999.0,'11111222,11111222,99999222' 
DISL,ioos:station:DISL:DISL:1,2019-07-06T01:00:00Z,30.2513,-88.0778,9.68,1.99,267.2,-9999.0,'11111222,11111222,99999222' 
DISL,ioos:station:DISL:DISL:1,2019-07-06T02:00:00Z,30.2513,-88.0778,9.68,1.74,264.2,-9999.0,'11111222,11111222,99999222' 
DISL,ioos:station:DISL:DISL:1,2019-07-06T03:00:00Z,30.2513,-88.0778,9.68,1.58,258.3,-9999.0,'11111222,11111222,99999222' 
DISL,ioos:station:DISL:DISL:1,2019-07-06T04:00:00Z,30.2513,-88.0778,9.68,2.2,271.0,-9999.0,'11111222,11111222,99999222' 
DISL,ioos:station:DISL:DISL:1,2019-07-06T05:00:00Z,30.2513,-88.0778,9.68,1.46,257.3,-9999.0,'11111222,11111222,99999222' 
DISL,ioos:station:DISL:DISL:1,2019-07-06T06:00:00Z,30.2513,-88.0778,9.68,1.48,266.0,-9999.0,'11111222,11111222,99999222' 
DISL,ioos:station:DISL:DISL:1,2019-07-06T07:00:00Z,30.2513,-88.0778,9.68,1.9,277.9,-9999.0,'11111222,11111222,99999222' 
DISL,ioos:station:DISL:DISL:1,2019-07-06T08:00:00Z,30.2513,-88.0778,9.68,1.64,269.0,-9999.0,'11111222,11111222,99999222' 
DISL,ioos:station:DISL:DISL:1,2019-07-06T09:00:00Z,30.2513,-88.0778,9.68,3.23,283.7,-9999.0,'11111222,11111222,99999222' 
DISL,ioos:station:DISL:DISL:1,2019-07-06T10:00:00Z,30.2513,-88.0778,9.68,3.6,285.9,-9999.0,'11111222,11111222,99999222' 
DISL,ioos:station:DISL:DISL:1,2019-07-06T11:00:00Z,30.2513,-88.0778,9.68,4.09,299.8,-9999.0,'11111222,11111222,99999222' 
DISL,ioos:station:DISL:DISL:1,2019-07-06T12:00:00Z,30.2513,-88.0778,9.68,4.1,307.0,-9999.0,'11111222,11111222,99999222' 
DISL,ioos:station:DISL:DISL:1,2019-07-06T13:00:00Z,30.2513,-88.0778,9.68,4.79,315.6,-9999.0,'11111222,11111222,99999222' 
DISL,ioos:station:DISL:DISL:1,2019-07-06T14:00:00Z,30.2513,-88.0778,9.68,4.85,328.4,-9999.0,'11111222,11111222,99999222' 
DISL,ioos:station:DISL:DISL:1,2019-07-06T15:00:00Z,30.2513,-88.0778,9.68,3.79,357.5,-9999.0,'11111222,11111222,99999222' 
DISL,ioos:station:DISL:DISL:1,2019-07-06T16:00:00Z,30.2513,-88.0778,9.68,3.31,20.11,-9999.0,'11111222,11111222,99999222' 
DISL,ioos:station:DISL:DISL:1,2019-07-06T17:00:00Z,30.2513,-88.0778,9.68,2.2,32.17,-9999.0,'11111222,11111222,99999222' 
DISL,ioos:station:DISL:DISL:1,2019-07-06T18:00:00Z,30.2513,-88.0778,9.68,0.95,62.34,-9999.0,'11111222,11111222,99999222' 
DISL,ioos:station:DISL:DISL:1,2019-07-06T19:00:00Z,30.2513,-88.0778,9.68,0.29,68.65,-9999.0,'11111222,11111222,99999222' 
DISL,ioos:station:DISL:DISL:1,2019-07-06T20:10:00Z,30.2513,-88.0778,9.68,3.28,213.4,-9999.0,'11111222,11111222,99999222' 
DISL,ioos:station:DISL:DISL:1,2019-07-06T21:10:00Z,30.2513,-88.0778,9.68,2.75,249.0,-9999.0,'11111222,11111222,99999222' 
DISL,ioos:station:DISL:DISL:1,2019-07-06T22:10:00Z,30.2513,-88.0778,9.68,2.91,229.3,-9999.0,'11111222,11111222,99999222' 
DISL,ioos:station:DISL:DISL:1,2019-07-06T23:10:00Z,30.2513,-88.0778,9.68,3.14,230.3,-9999.0,'11111222,11111222,99999222' 
DISL,ioos:station:DISL:DISL:1,2019-07-07T00:10:00Z,30.2513,-88.0778,9.68,2.62,248.5,-9999.0,'11111222,11111222,99999222' 
DISL,ioos:station:DISL:DISL:1,2019-07-07T01:10:00Z,30.2513,-88.0778,9.68,2.23,239.5,-9999.0,'11111222,11111222,99999222' 
DISL,ioos:station:DISL:DISL:1,2019-07-07T02:10:00Z,30.2513,-88.0778,9.68,1.75,243.1,-9999.0,'11111222,11111222,99999222' 
DISL,ioos:station:DISL:DISL:1,2019-07-07T03:10:00Z,30.2513,-88.0778,9.68,1.97,253.8,-9999.0,'11111222,11111222,99999222' 
DISL,ioos:station:DISL:DISL:1,2019-07-07T04:10:00Z,30.2513,-88.0778,9.68,2.44,252.8,-9999.0,'11111222,11111222,99999222' 
DISL,ioos:station:DISL:DISL:1,2019-07-07T05:10:00Z,30.2513,-88.0778,9.68,3.05,261.6,-9999.0,'11111222,11111222,99999222' 
DISL,ioos:station:DISL:DISL:1,2019-07-07T06:10:00Z,30.2513,-88.0778,9.68,3.66,262.0,-9999.0,'11111222,11111222,99999222' 
DISL,ioos:station:DISL:DISL:1,2019-07-07T07:10:00Z,30.2513,-88.0778,9.68,4.3,269.9,-9999.0,'11111222,11111222,99999222' 
DISL,ioos:station:DISL:DISL:1,2019-07-07T08:10:00Z,30.2513,-88.0778,9.68,5.16,285.8,-9999.0,'11111222,11111222,99999222' 
DISL,ioos:station:DISL:DISL:1,2019-07-07T09:10:00Z,30.2513,-88.0778,9.68,4.49,294.5,-9999.0,'11111222,11111222,99999222' 
DISL,ioos:station:DISL:DISL:1,2019-07-07T10:10:00Z,30.2513,-88.0778,9.68,4.13,287.9,-9999.0,'11111222,11111222,99999222' 
DISL,ioos:station:DISL:DISL:1,2019-07-07T11:10:00Z,30.2513,-88.0778,9.68,3.87,289.7,-9999.0,'11111222,11111222,99999222' 
DISL,ioos:station:DISL:DISL:1,2019-07-07T12:10:00Z,30.2513,-88.0778,9.68,4.87,301.8,-9999.0,'11111222,11111222,99999222' 
DISL,ioos:station:DISL:DISL:1,2019-07-07T13:10:00Z,30.2513,-88.0778,9.68,4.13,310.2,-9999.0,'11111222,11111222,99999222' 
DISL,ioos:station:DISL:DISL:1,2019-07-07T14:10:00Z,30.2513,-88.0778,9.68,3.51,306.5,-9999.0,'11111222,11111222,99999222' 
DISL,ioos:station:DISL:DISL:1,2019-07-07T15:10:00Z,30.2513,-88.0778,9.68,4.82,310.9,-9999.0,'11111222,11111222,99999222' 
DISL,ioos:station:DISL:DISL:1,2019-07-07T16:10:00Z,30.2513,-88.0778,9.68,4.88,304.7,-9999.0,'11111222,11111222,99999222' 
DISL,ioos:station:DISL:DISL:1,2019-07-07T17:10:00Z,30.2513,-88.0778,9.68,4.69,314.3,-9999.0,'11111222,11111222,99999222' 
DISL,ioos:station:DISL:DISL:1,2019-07-07T18:10:00Z,30.2513,-88.0778,9.68,4.28,291.6,-9999.0,'11111222,11111222,99999222' 
DISL,ioos:station:DISL:DISL:1,2019-07-07T19:10:00Z,30.2513,-88.0778,9.68,4.06,222.2,-9999.0,'11111222,11111222,99999222' 
DISL,ioos:station:DISL:DISL:1,2019-07-07T20:10:00Z,30.2513,-88.0778,9.68,4.94,235.1,-9999.0,'11111222,11111222,99999222' 
DISL,ioos:station:DISL:DISL:1,2019-07-07T21:10:00Z,30.2513,-88.0778,9.68,4.3,238.5,-9999.0,'11111222,11111222,99999222' 
DISL,ioos:station:DISL:DISL:1,2019-07-07T22:10:00Z,30.2513,-88.0778,9.68,3.67,237.3,-9999.0,'11111222,11111222,99999222' 
DISL,ioos:station:DISL:DISL:1,2019-07-07T23:10:00Z,30.2513,-88.0778,9.68,4.01,252.9,-9999.0,'11111222,11111222,99999222' 
DISL,ioos:station:DISL:DISL:1,2019-07-08T00:10:00Z,30.2513,-88.0778,9.68,3.53,262.0,-9999.0,'11111222,11111222,99999222' 
DISL,ioos:station:DISL:DISL:1,2019-07-08T01:10:00Z,30.2513,-88.0778,9.68,3.02,246.2,-9999.0,'11111222,11111222,99999222' 
DISL,ioos:station:DISL:DISL:1,2019-07-08T02:10:00Z,30.2513,-88.0778,9.68,3.28,274.4,-9999.0,'11111222,11111222,99999222' 
DISL,ioos:station:DISL:DISL:1,2019-07-08T03:10:00Z,30.2513,-88.0778,9.68,3.83,342.2,-9999.0,'11111222,11111222,99999222' 
DISL,ioos:station:DISL:DISL:1,2019-07-08T04:10:00Z,30.2513,-88.0778,9.68,5.15,24.09,-9999.0,'11111222,11111222,99999222' 
DISL,ioos:station:DISL:DISL:1,2019-07-08T05:10:00Z,30.2513,-88.0778,9.68,3.0,329.5,-9999.0,'11111222,11111222,99999222' 
DISL,ioos:station:DISL:DISL:1,2019-07-08T06:10:00Z,30.2513,-88.0778,9.68,2.71,329.1,-9999.0,'11111222,11111222,99999222' 
DISL,ioos:station:DISL:DISL:1,2019-07-08T07:10:00Z,30.2513,-88.0778,9.68,1.88,322.7,-9999.0,'11111222,11111222,99999222' 
DISL,ioos:station:DISL:DISL:1,2019-07-08T08:10:00Z,30.2513,-88.0778,9.68,1.23,292.8,-9999.0,'11111222,11111222,99999222' 
DISL,ioos:station:DISL:DISL:1,2019-07-08T09:10:00Z,30.2513,-88.0778,9.68,2.97,303.7,-9999.0,'11111222,11111222,99999222' 
DISL,ioos:station:DISL:DISL:1,2019-07-08T10:10:00Z,30.2513,-88.0778,9.68,2.31,290.1,-9999.0,'11111222,11111222,99999222' 
DISL,ioos:station:DISL:DISL:1,2019-07-08T11:10:00Z,30.2513,-88.0778,9.68,4.01,314.3,-9999.0,'11111222,11111222,99999222' 
DISL,ioos:station:DISL:DISL:1,2019-07-08T12:10:00Z,30.2513,-88.0778,9.68,4.24,299.6,-9999.0,'11111222,11111222,99999222' 
DISL,ioos:station:DISL:DISL:1,2019-07-08T13:10:00Z,30.2513,-88.0778,9.68,5.47,318.2,-9999.0,'11111222,11111222,99999222' 
DISL,ioos:station:DISL:DISL:1,2019-07-08T14:10:00Z,30.2513,-88.0778,9.68,3.86,334.9,-9999.0,'11111222,11111222,99999222' 
DISL,ioos:station:DISL:DISL:1,2019-07-08T15:10:00Z,30.2513,-88.0778,9.68,2.12,341.8,-9999.0,'11111222,11111222,99999222' 
DISL,ioos:station:DISL:DISL:1,2019-07-08T16:10:00Z,30.2513,-88.0778,9.68,1.06,42.03,-9999.0,'11111222,11111222,99999222' 
DISL,ioos:station:DISL:DISL:1,2019-07-08T17:00:00Z,30.2513,-88.0778,9.68,3.76,301.0,-9999.0,'11111222,11111222,99999222' 
DISL,ioos:station:DISL:DISL:1,2019-07-08T18:00:00Z,30.2513,-88.0778,9.68,4.87,289.8,-9999.0,'11111222,11111222,99999222' 
DISL,ioos:station:DISL:DISL:1,2019-07-08T19:00:00Z,30.2513,-88.0778,9.68,3.47,283.3,-9999.0,'11111222,11111222,99999222' 
DISL,ioos:station:DISL:DISL:1,2019-07-08T20:00:00Z,30.2513,-88.0778,9.68,3.58,255.0,-9999.0,'11111222,11111222,99999222' 
DISL,ioos:station:DISL:DISL:1,2019-07-08T21:00:00Z,30.2513,-88.0778,9.68,4.17,224.0,-9999.0,'11111222,11111222,99999222' 
DISL,ioos:station:DISL:DISL:1,2019-07-08T22:00:00Z,30.2513,-88.0778,9.68,3.86,241.4,-9999.0,'11111222,11111222,99999222' 
DISL,ioos:station:DISL:DISL:1,2019-07-08T23:00:00Z,30.2513,-88.0778,9.68,5.78,270.3,-9999.0,'11111222,11111222,99999222' 
DISL,ioos:station:DISL:DISL:1,2019-07-09T00:00:00Z,30.2513,-88.0778,9.68,4.65,283.0,-9999.0,'11111222,11111222,99999222' 
DISL,ioos:station:DISL:DISL:1,2019-07-09T01:00:00Z,30.2513,-88.0778,9.68,4.18,279.8,-9999.0,'11111222,11111222,99999222' 
DISL,ioos:station:DISL:DISL:1,2019-07-09T02:00:00Z,30.2513,-88.0778,9.68,3.63,299.2,-9999.0,'11111222,11111222,99999222' 
DISL,ioos:station:DISL:DISL:1,2019-07-09T03:00:00Z,30.2513,-88.0778,9.68,3.48,280.0,-9999.0,'11111222,11111222,99999222' 
DISL,ioos:station:DISL:DISL:1,2019-07-09T04:00:00Z,30.2513,-88.0778,9.68,3.11,282.8,-9999.0,'11111222,11111222,99999222' 
DISL,ioos:station:DISL:DISL:1,2019-07-09T05:00:00Z,30.2513,-88.0778,9.68,3.81,287.5,-9999.0,'11111222,11111222,99999222' 
DISL,ioos:station:DISL:DISL:1,2019-07-09T06:00:00Z,30.2513,-88.0778,9.68,4.25,296.6,-9999.0,'11111222,11111222,99999222' 
DISL,ioos:station:DISL:DISL:1,2019-07-09T07:00:00Z,30.2513,-88.0778,9.68,4.23,305.9,-9999.0,'11111222,11111222,99999222' 